Tracking 25949 objects as of 9-Aug-2022
HD Live streaming from Space Station
objects crossing your sky now

STARLINK-3940

Track STARLINK-3940 now!
10-day predictions
STARLINK-3940 is classified as:


NORAD ID: 52540
Int'l Code: 2022-051H
Perigee: 545.6 km
Apogee: 548.3 km
Inclination: 53.2 °
Period: 95.4 minutes
Semi major axis: 6917 km
RCS: Unknown
Launch date: May 13, 2022
Source: United States (US)
Launch site: AIR FORCE WESTERN TEST RANGE (AFWTR)
aabbcc
Your satellite tracking list
Your tracking list is empty




NASA's NSSDC Master Catalog

Two Line Element Set (TLE):
1 52540U 22051H   22220.91667824  .00047114  00000-0  29605-2 0  9998
2 52540  53.2153 244.4342 0001926  46.7532 333.5059 15.08816770  1300
Source of the keplerian elements: AFSPC